Starlink 5256

operational
NORAD ID: 54175 Int'l Des: 2022-141 Owner: SPXS Country: US Constellation: starlink
LEOCIRCULAR

关于 Starlink 5256

正在加载描述...

实时位置

正在加载3D地球...

即将过境

高度历史

Altitude vs Time

uPlot chart will show altitude changes over time

两行轨道根数

1 54175U 22141U 25352.32173016 -.00003712 00000-0 -21528-3 0 9998
2 54175 53.2167 9.4091 0001820 78.3828 281.7369 15.08834392173570
Epoch: Dec 18, 2025 • Age: 12 hours

当前状态

高度 545.1 km
速度 7.60 km/s
星下点 53.22°N, 86.58°E
发射日期 Oct 28, 2022
运行时间 3.1 years
类型 internet

技术详情

分类 Payload
质量 305.00 kg
干质量 290.00 kg
总质量 305.00 kg
长度 0.20 m
直径 2.80 m
跨度 9.00 m
形状 Box + pan
制造商 SPXS
平台类型 Starlink
阶段状态 In Orbit
所有者/国家 SPXS/US

大型星座

Loading constellations...